Вернуться в каталог

THOR ABLESTAR DEB

АктивенLEO
NORAD 159·DEBRIS·🇺🇸 United States

Запущен Jun 29, 1961 с Cape Canaveral Space Force Station

Loading…

Ближайшие Пролёты (ближайшие 24 часа)

TLE

СвежийSource: Space-Track

Эпоха: Sep 14, 2026, 08:51 UTC

1 00159U 61015AV  26257.36933906  .00000302  00000-0  86493-3 0  9997
2 00159  65.5285  37.3392 0358895 125.7520 237.7443 13.03105616 92473

Отслеживайте THOR ABLESTAR DEB в реальном времени с AllMySat

Download on the App Store